Weather History for Juliana Airport, Saint Maarten, Saint Maartin

Change the Weather History Date:

Saturday, November 16, 2013

  Actual Average Record
Temperature  
Mean Temperature 82 °F -  
Max Temperature 86 °F 83 °F - ()
Min Temperature 77 °F 73 °F - ()
Cooling Degree Days 16    
Growing Degree Days 32 (Base 50)    
Moisture  
Dew Point 72 °F    
Average Humidity 70    
Maximum Humidity 83    
Minimum Humidity 58    
Precipitation  
Precipitation 0.00 in 0.14 in - ()
Sea Level Pressure  
Sea Level Pressure 29.90 in    
Wind  
Wind Speed 4 mph ()    
Max Wind Speed 7 mph    
Max Gust Speed -    
Visibility 6.2 miles    
Events Rain    
T = Trace of Precipitation, MM = Missing Value Source: Averaged Metar Reports

Daily Weather History Graph

Daily Weather History Graph

Search for Another Location

Airport:

Trip Planner

Search our weather history database for the weather conditions in past years. The results will help you decide how hot, cold, wet, or windy it might be!

Date:

Astronomy

Nov. 16, 2013 Rise Set
Actual Time 6:18 AM AST 5:35 PM AST
Civil Twilight 5:56 AM AST 5:58 PM AST
Nautical Twilight 5:29 AM AST 6:24 PM AST
Astronomical Twilight 5:03 AM AST 6:50 PM AST
Moon 5:02 PM AST (11/16) 5:18 AM AST (11/16)
Length of Visible Light 12h 02m
Length of Day
11h 16m
Waxing Gibbous, 99% of the Moon is Illuminated
Nov 16
Waxing Gibbous
Nov 17
Full
Nov 25
Last Quarter
Dec 2
New
Dec 9
First Quarter

Hourly Weather History & Observations

Time (AST) Temp. Heat Index Dew Point Humidity Pressure Visibility Wind Dir Wind Speed Gust Speed Precip Events Conditions
12:00 AM 80.6 °F 84.6 °F 71.6 °F 74% 29.92 in 6.2 mi ENE 6.9 mph - N/A   Partly Cloudy
1:00 AM 80.6 °F 85.4 °F 73.4 °F 79% 29.92 in 6.2 mi ENE 5.8 mph - N/A   Partly Cloudy
2:00 AM 80 °F - 72 °F 71% 29.90 in 28 mi East 6.9 mph - - Rain Light Rain Showers
2:00 AM 80.6 °F 84.6 °F 71.6 °F 74% 29.89 in 6.2 mi East 5.8 mph - N/A   Partly Cloudy
3:00 AM 78.8 °F - 71.6 °F 78% 29.89 in 6.2 mi ENE 4.6 mph - N/A   Partly Cloudy
4:00 AM 78.8 °F - 71.6 °F 78% 29.89 in 6.2 mi Variable 3.5 mph - N/A   Partly Cloudy
5:00 AM 79 °F - 72 °F 75% 29.90 in 28 mi 2.3 mph - -   Scattered Clouds
5:00 AM 78.8 °F - 73.4 °F 83% 29.89 in 6.2 mi Variable 3.5 mph - N/A   Partly Cloudy
6:00 AM 78.8 °F - 71.6 °F 78% 29.89 in 6.2 mi Variable 2.3 mph - N/A   Partly Cloudy
7:00 AM 78.8 °F - 73.4 °F 83% 29.92 in 6.2 mi Variable 2.3 mph - N/A   Partly Cloudy
8:00 AM 83 °F - 72 °F 63% 29.94 in 37 mi 2.3 mph - -   Scattered Clouds
8:00 AM 84.2 °F 90.9 °F 73.4 °F 70% 29.92 in 6.2 mi Variable 2.3 mph - N/A   Partly Cloudy
9:00 AM 84.2 °F 89.6 °F 71.6 °F 66% 29.95 in 6.2 mi Variable 3.5 mph - N/A   Partly Cloudy
10:00 AM 84.2 °F 89.6 °F 71.6 °F 66% 29.95 in 6.2 mi Variable 3.5 mph - N/A   Scattered Clouds
11:00 AM 83 °F - 71 °F 60% 29.96 in 37 mi NNE 5.8 mph - -   Partly Cloudy
11:00 AM 84.2 °F 89.6 °F 71.6 °F 66% 29.95 in 6.2 mi NNE 5.8 mph - N/A   Scattered Clouds
12:00 PM 86.0 °F 90.4 °F 69.8 °F 58% 29.92 in 6.2 mi NNE 5.8 mph - N/A   Partly Cloudy
1:00 PM 82.4 °F 87.2 °F 71.6 °F 70% 29.89 in 6.2 mi Variable 5.8 mph - N/A   Partly Cloudy
2:00 PM 84 °F - 72 °F 61% 29.87 in 37 mi West 2.3 mph - -   Scattered Clouds
2:00 PM 84.2 °F 90.9 °F 73.4 °F 70% 29.86 in 6.2 mi West 2.3 mph - N/A   Partly Cloudy
3:00 PM 86.0 °F 93.4 °F 73.4 °F 66% 29.86 in 6.2 mi Variable 5.8 mph - N/A   Partly Cloudy
4:00 PM 84.2 °F 88.4 °F 69.8 °F 62% 29.86 in 6.2 mi NNE 6.9 mph - N/A   Partly Cloudy
5:00 PM 83 °F - 72 °F 61% 29.87 in 37 mi 3.5 mph - -   Partly Cloudy
5:00 PM 82.4 °F 87.2 °F 71.6 °F 70% 29.86 in 6.2 mi Variable 3.5 mph - N/A   Partly Cloudy
6:00 PM 82.4 °F 87.2 °F 71.6 °F 70% 29.86 in 6.2 mi NNE 4.6 mph - N/A   Partly Cloudy
7:00 PM 80.6 °F 84.6 °F 71.6 °F 74% 29.89 in 6.2 mi NNE 4.6 mph - N/A   Partly Cloudy
8:00 PM 81 °F - 72 °F 66% 29.90 in 37 mi 3.5 mph - -   Scattered Clouds
8:00 PM 80.6 °F 84.6 °F 71.6 °F 74% 29.89 in 6.2 mi Variable 2.3 mph - N/A   Partly Cloudy
9:00 PM 80.6 °F 83.9 °F 69.8 °F 70% 29.89 in 6.2 mi NNE 3.5 mph - N/A   Partly Cloudy
10:00 PM 80.6 °F 84.6 °F 71.6 °F 74% 29.89 in 6.2 mi NE 2.3 mph - N/A   Scattered Clouds
11:00 PM 80 °F - 71 °F 69% 29.89 in 37 mi NNE 4.6 mph - -   Scattered Clouds
11:00 PM 80.6 °F 84.6 °F 71.6 °F 74% 29.89 in 6.2 mi NNE 4.6 mph - N/A   Partly Cloudy